This is the latest recevied weather packets stored in our database for station/object K0CVS. If no packets are shown the sender has not sent any weather packets the latest 10 day(s).
| Time | Temp. | Humidity | Pressure | Rain* | Wind** | Luminosity | Snow |
|---|---|---|---|---|---|---|---|
| 1777381502 | 9.44° C | 78% | 1018.5 hPa | 0 mm | - | 19 W/m² | - |
| 1777381199 | 9.44° C | 78% | 1018.6 hPa | 0 mm | - | 16 W/m² | - |
| 1777380896 | 9.44° C | 77% | 1018.6 hPa | 0 mm | - | 17 W/m² | - |
| 1777380593 | 9.44° C | 78% | 1018.5 hPa | 0 mm | - | 18 W/m² | - |
| 1777380289 | 9.44° C | 78% | 1018.4 hPa | 0 mm | - | 19 W/m² | - |
| 1777379985 | 9.44° C | 77% | 1018.5 hPa | 0 mm | - | 20 W/m² | - |
| 1777379681 | 9.44° C | 78% | 1018.2 hPa | 0 mm | - | 20 W/m² | - |
| 1777379377 | 8.89° C | 78% | 1018.1 hPa | 0 mm | - | 16 W/m² | - |
| 1777379072 | 8.89° C | 78% | 1017.9 hPa | 0 mm | - | 15 W/m² | - |
| 1777378767 | 8.89° C | 78% | 1017.8 hPa | 0 mm | - | 14 W/m² | - |
| 1777378465 | 8.89° C | 78% | 1017.8 hPa | 0 mm | - | 11 W/m² | - |
| 1777378160 | 8.89° C | 78% | 1017.4 hPa | 0 mm | - | 10 W/m² | - |
| 1777377859 | 8.89° C | 77% | 1017.3 hPa | 0 mm | - | 8 W/m² | - |
| 1777377559 | 8.89° C | 78% | 1017.3 hPa | 0 mm | - | 6 W/m² | - |
| 1777377254 | 8.89° C | 79% | 1017.4 hPa | 0 mm | - | 4 W/m² | - |
| 1777376952 | 8.89° C | 78% | 1017.5 hPa | 0 mm | - | 3 W/m² | - |
| 1777376649 | 8.89° C | 79% | 1017.5 hPa | 0 mm | - | 2 W/m² | - |
| 1777376346 | 8.89° C | 79% | 1017.4 hPa | 0 mm | - | 2 W/m² | - |
| 1777376041 | 8.89° C | 78% | 1017.4 hPa | 0 mm | - | 1 W/m² | - |
| 1777375740 | 8.89° C | 78% | 1017.2 hPa | 0 mm | - | 1 W/m² | - |
| 1777375436 | 8.89° C | 78% | 1017.2 hPa | 0 mm | - | 1 W/m² | - |
| 1777375133 | 8.89° C | 78% | 1016.9 hPa | 0 mm | - | 0 W/m² | - |
| 1777374832 | 8.89° C | 78% | 1016.3 hPa | 0 mm | - | 0 W/m² | - |
| 1777374528 | 8.89° C | 78% | 1016.2 hPa | 0 mm | - | 0 W/m² | - |
| 1777374225 | 8.89° C | 78% | 1015.7 hPa | 0 mm | - | 0 W/m² | - |
* Rain latest hour (hover to see other rain measurements)
** Current wind speed in m/s (hover to see current wind gust speed)